Location: Chantarel
(45.1638°N, 1.7873°E)
Time: 07:10:49
(UTC+00:00)

SME Rocket - Pass Details

Date: 03 March 2021
Orbit: 550 x 2652 km, 99.9° (Epoch: 10 April)

Event Time Altitude Azimuth Distance (km) Brightness Sun altitude
Rises 19:07:44 0° 17° (NNE) 4,919 7.5 -15.7°
Reaches altitude 10° 19:11:21 10° 22° (NNE) 3,596 6.8 -16.3°
Maximum altitude 19:19:01 49° 96° (E) 1,321 4.3 -17.7°
Drops below altitude 10° 19:24:05 10° 171° (S) 2,384 5.9 -18.6°
Sets 19:26:04 0° 177° (S) 3,144 6.6 -18.9°
